Tracking 29606 objects as of 18-Sep-2024
HD Live streaming from Space Station
objects crossing your sky now

DELTA R/B(1)

Track DELTA R/B(1) now!
10-day predictions


NORAD ID: 25619
Int'l Code: 1999-003B
Perigee: 290.6 km
Apogee: 3,543.5 km
Inclination: 22.4 °
Period: 125.2 minutes
Semi major axis: 8288 km
RCS: 10.5824 m2 (large)
Launch date: February 7, 1999
Source: United States (US)
Launch site: AIR FORCE EASTERN TEST RANGE (AFETR)

Note: This is a ROCKET BODY
Your satellite tracking list
Your tracking list is empty




NASA's NSSDC Master Catalog

Two Line Element Set (TLE):
1 25619U 99003B   24262.20807408  .00069047 -47086-5  21612-2 0  9990
2 25619  22.4425 165.4420 1962409  40.8496 332.3605 11.50592856948317
Source of the keplerian elements: AFSPC